2023/02/04 00:00:00,120.8,-1.3
2023/02/04 00:10:00,120.7,-0.7
2023/02/04 00:20:00,120.6,-0.8
2023/02/04 00:30:00,120.5,-0.4
2023/02/04 00:40:00,120.4,-0.4
2023/02/04 00:50:00,120.4,-1.2
2023/02/04 01:00:00,120.2,-1.1
2023/02/04 01:10:00,120.2,-1.2
2023/02/04 01:20:00,120.1,-1.4
2023/02/04 01:30:00,120.1,-1.5
2023/02/04 01:40:00,120.0,-1.5
2023/02/04 01:50:00,119.9,-0.8
2023/02/04 02:00:00,119.9,-1.3
2023/02/04 02:10:00,119.8,-1.4
2023/02/04 02:20:00,119.8,-1.9
2023/02/04 02:30:00,119.8,-1.8
2023/02/04 02:40:00,119.7,-2.2
2023/02/04 02:50:00,119.7,-1.8
2023/02/04 03:00:00,119.6,-1.9
2023/02/04 03:10:00,119.6,-2.1
2023/02/04 03:20:00,119.6,-2.2
2023/02/04 03:30:00,119.6,-2.7
2023/02/04 03:40:00,119.6,-2.7
2023/02/04 03:50:00,119.6,-2.8
2023/02/04 04:00:00,119.5,-3.0
2023/02/04 04:10:00,119.5,-2.6
2023/02/04 04:20:00,119.5,-2.2
2023/02/04 04:30:00,119.4,-2.2
2023/02/04 04:40:00,119.4,-2.0
2023/02/04 04:50:00,119.3,-1.8
2023/02/04 05:00:00,119.3,-1.3
2023/02/04 05:10:00,119.2,-1.4
2023/02/04 05:20:00,119.2,-1.4
2023/02/04 05:30:00,119.1,-1.2
2023/02/04 05:40:00,119.2,-1.0
2023/02/04 05:50:00,119.2,-0.9
2023/02/04 06:00:00,119.2,-0.9
2023/02/04 06:10:00,119.2,-0.7
2023/02/04 06:20:00,119.2,-0.5
2023/02/04 06:30:00,119.2,-0.5
2023/02/04 06:40:00,119.3,-0.5
2023/02/04 06:50:00,119.2,-0.6
2023/02/04 07:00:00,119.2,-0.6
2023/02/04 07:10:00,119.1,-0.2
2023/02/04 07:20:00,119.0,-0.2
2023/02/04 07:30:00,119.0,-0.1
2023/02/04 07:40:00,118.9, 0.0
2023/02/04 07:50:00,118.9, 0.3
2023/02/04 08:00:00,118.9, 0.6
2023/02/04 08:10:00,118.8, 0.6
2023/02/04 08:20:00,118.7, 0.8
2023/02/04 08:30:00,118.7, 0.8
2023/02/04 08:40:00,118.6, 0.8
2023/02/04 08:50:00,118.6, 0.9
2023/02/04 09:00:00,118.5, 1.3
2023/02/04 09:10:00,118.4, 1.5
2023/02/04 09:20:00,118.4, 1.9
2023/02/04 09:30:00,118.3, 2.1
2023/02/04 09:40:00,118.3, 2.4
2023/02/04 09:50:00,118.3, 2.1
2023/02/04 10:00:00,118.3, 3.0
2023/02/04 10:10:00,118.2, 3.6
2023/02/04 10:20:00,118.2, 3.3
2023/02/04 10:30:00,118.1, 3.7
2023/02/04 10:40:00,118.1, 3.9
2023/02/04 10:50:00,118.0, 3.5
2023/02/04 11:00:00,117.9, 2.6
2023/02/04 11:10:00,117.9, 2.9
2023/02/04 11:20:00,117.8, 2.8
2023/02/04 11:30:00,117.8, 2.1
2023/02/04 11:40:00,117.8, 2.2
2023/02/04 11:50:00,117.8, 2.6
2023/02/04 12:00:00,117.8, 2.4
2023/02/04 12:10:00,117.8, 2.6
2023/02/04 12:20:00,117.8, 2.4
2023/02/04 12:30:00,117.7, 2.4
2023/02/04 12:40:00,117.6, 3.6
2023/02/04 12:50:00,117.4, 4.0
2023/02/04 13:00:00,117.5, 4.4
2023/02/04 13:10:00,117.4, 6.3
2023/02/04 13:20:00,117.4, 7.0
2023/02/04 13:30:00,117.4, 6.4
2023/02/04 13:40:00,117.4, 6.1
2023/02/04 13:50:00,117.3, 6.5
2023/02/04 14:00:00,117.2, 8.6
2023/02/04 14:10:00,117.2, 7.1
2023/02/04 14:20:00,117.2, 6.9
2023/02/04 14:30:00,117.2, 7.6
2023/02/04 14:40:00,117.2, 9.2
2023/02/04 14:50:00,117.2, 7.0
2023/02/04 15:00:00,117.2, 6.8
2023/02/04 15:10:00,117.2, 6.4
2023/02/04 15:20:00,117.1, 5.4
2023/02/04 15:30:00,117.1, 5.2
2023/02/04 15:40:00,117.1, 7.0
2023/02/04 15:50:00,117.2, 5.1
2023/02/04 16:00:00,117.2, 3.9
2023/02/04 16:10:00,117.1, 3.4
2023/02/04 16:20:00,117.1, 3.2
2023/02/04 16:30:00,117.1, 2.6
2023/02/04 16:40:00,117.0, 2.4
2023/02/04 16:50:00,116.7, 1.7
2023/02/04 17:00:00,116.4, 2.0
2023/02/04 17:10:00,116.4, 1.9
2023/02/04 17:20:00,116.3, 1.8
2023/02/04 17:30:00,116.3, 2.0
2023/02/04 17:40:00,116.4, 1.9
2023/02/04 17:50:00,116.3, 1.5
2023/02/04 18:00:00,116.3, 1.8
2023/02/04 18:10:00,116.3, 1.5
2023/02/04 18:20:00,116.2, 1.4
2023/02/04 18:30:00,116.2, 1.4
2023/02/04 18:40:00,116.2, 1.3
2023/02/04 18:50:00,116.1, 1.3
2023/02/04 19:00:00,116.1, 1.3
2023/02/04 19:10:00,116.0, 1.3
2023/02/04 19:20:00,115.9, 1.0
2023/02/04 19:30:00,115.8, 0.9
2023/02/04 19:40:00,115.6, 1.0
2023/02/04 19:50:00,115.6, 0.8
2023/02/04 20:00:00,115.6, 0.9
2023/02/04 20:10:00,115.9, 0.9
2023/02/04 20:20:00,115.9, 0.9
2023/02/04 20:30:00,115.8, 1.0
2023/02/04 20:40:00,116.2, 1.0
2023/02/04 20:50:00,116.6, 0.8
2023/02/04 21:00:00,116.9, 1.0
2023/02/04 21:10:00,116.8, 0.6
2023/02/04 21:20:00,116.7, 0.6
2023/02/04 21:30:00,116.6, 0.7
2023/02/04 21:40:00,116.5, 0.7
2023/02/04 21:50:00,116.5, 0.6
2023/02/04 22:00:00,116.4, 1.0
2023/02/04 22:10:00,116.4, 0.9
2023/02/04 22:20:00,116.4, 0.6
2023/02/04 22:30:00,116.4, 0.9
2023/02/04 22:40:00,116.3, 0.6
2023/02/04 22:50:00,116.2, 0.7
2023/02/04 23:00:00,116.1, 0.3
2023/02/04 23:10:00,116.1, 0.5
2023/02/04 23:20:00,115.9, 0.3
2023/02/04 23:30:00,115.9, 0.3
2023/02/04 23:40:00,115.8, 0.5
2023/02/04 23:50:00,115.7, 0.4
